NOVO254 KJFK-KDCA

Flight info

Callsign NOVO254
Flight time N/A
Altitude 14000
Route KJFK DCT CRI DCT TICKL V433 ARD T438 MAZIE V3 MXE DCT KDCA
Aircraft TBM9/M-SB3/S

Departure

Time 2026-05-06 03:59
Airport John F. Kennedy International Airport (KJFK)

Arrival

Time N/A
Airport Ronald Reagan Washington National Airport (KDCA)
Time Latitude Longitude Altitude Speed Heading
2026-05-06 03:58 40.67030 -73.77244 339 ft 150 kts 171°
2026-05-06 03:58 40.65965 -73.76901 460 ft 167 kts 176°
2026-05-06 03:58 40.64838 -73.76737 537 ft 180 kts 187°
2026-05-06 03:59 40.64677 -73.76745 616 ft 177 kts 188°
2026-05-06 03:59 40.63423 -73.77015 669 ft 175 kts 217°
2026-05-06 04:00 40.63022 -73.78385 832 ft 180 kts 283°
2026-05-06 04:00 40.63916 -73.79642 738 ft 208 kts 326°
2026-05-06 04:00 40.64882 -73.79828 732 ft 224 kts
2026-05-06 04:00 40.66143 -73.78667 742 ft 236 kts 61°
2026-05-06 04:01 40.65403 -73.76342 513 ft 213 kts 137°
2026-05-06 04:01 40.64766 -73.75817 807 ft 111 kts 181°
2026-05-06 04:01 40.64255 -73.76123 438 ft 68 kts 256°
2026-05-06 04:01 40.64294 -73.76684 161 ft 62 kts 256°
2026-05-06 04:02 40.64238 -73.76839 72 ft 63 kts 234°
2026-05-06 04:02 40.64028 -73.77143 99 ft 67 kts 240°
2026-05-06 04:02 40.64356 -73.77593 169 ft 89 kts 332°
2026-05-06 04:02 40.64944 -73.77718 439 ft 66 kts 336°
2026-05-06 04:03 40.64913 -73.78051 331 ft 90 kts 199°
2026-05-06 04:03 40.64318 -73.77855 432 ft 74 kts 258°
2026-05-06 04:03 40.64699 -73.77580 311 ft 130 kts 125°
2026-05-06 04:03 40.64578 -73.76515 317 ft 134 kts 36°
2026-05-06 04:04 40.65019 -73.76910 238 ft 97 kts 261°
2026-05-06 04:04 40.65113 -73.77821 67 ft 107 kts 294°
2026-05-06 04:04 40.65466 -73.78675 28 ft 101 kts 296°
2026-05-06 04:04 40.66029 -73.79015 172 ft 122 kts 33°
2026-05-06 04:05 40.65719 -73.78220 169 ft 101 kts 163°
2026-05-06 04:05 40.65182 -73.77845 21 ft 87 kts 122°
2026-05-06 04:05 40.65009 -73.77477 15 ft 0 kts 123°
2026-05-06 04:06 40.65010 -73.77295 15 ft 48 kts 83°
2026-05-06 04:06 40.65029 -73.76720 65 ft 76 kts 87°
2026-05-06 04:07 40.64772 -73.76321 119 ft 64 kts 221°
2026-05-06 04:07 40.64813 -73.76930 50 ft 69 kts 299°
2026-05-06 04:07 40.65025 -73.77399 15 ft 44 kts 301°